Location: Bettgenhausen
(50.6463°N, 7.5681°E)
Time: 05:43:28
(UTC+00:00)

Cosmos 2297 Rocket - Pass Details

Date: 27 February 2020
Orbit: 838 x 845 km, 71.0° (Epoch: 28 March)

Event Time Altitude Azimuth Distance (km) Brightness Sun altitude
Rises 17:53:26 0° 332° (NNW) 3,416 5.7 -8.2°
Reaches altitude 10° 17:56:18 10° 345° (NNW) 2,478 4.8 -8.6°
Maximum altitude 18:01:03 26° 42° (NE) 1,596 3.3 -9.4°
Enters shadow 18:05:08 13° 94° (E) 2,282 3.8 -10.0°
